CAPE
468 443 291 233 114 8 11 44 30 39 8 31 20 1 2 3 4 4 2 12 1 2 32 63 59 15 57 98 102 65 35 3
585 505 343 196 23 3 15 25 0 11 0 15 3 5 0 9 0 6 4 0 40 37 70 73 62 16 10 68 30 46 5 4
586 550 424 187 16 4 7 23 0 0 6 1 0 0 0 2 3 3 3 3 36 141 158 147 45 24 67 64 52 56 15 17
616 516 457 230 60 4 7 8 2 0 7 2 0 2 0 0 1 0 0 0 85 154 158 131 94 191 140 233 225 206 146 22
446 506 369 310 102 3 8 5 1 0 0 0 0 2 0 2 2 2 0 0 61 78 113 112 170 170 206 191 179 194 158 111
298 527 359 220 117 3 7 7 9 0 0 1 0 1 4 4 0 0 2 2 2 13 56 99 86 105 253 233 192 131 191 243
163 455 330 247 147 2 5 14 0 0 0 0 27 15 7 2 1 2 0 1 0 31 59 24 59 79 199 269 313 230 230 278
40 362 352 228 125 4 0 7 4 17 0 0 24 58 7 8 2 0 1 1 0 0 0 37 32 67 219 321 296 348 294 303
0 269 397 250 132 34 2 1 8 12 0 0 23 42 39 35 3 5 0 0 0 0 0 1 3 34 101 320 294 315 573 435
0 149 435 304 201 71 8 20 23 16 13 17 28 57 40 31 22 7 0 6 7 12 6 14 12 81 92 235 224 193 331 160
15 95 423 400 330 128 26 0 34 38 33 20 14 38 46 58 56 57 63 76 66 39 55 26 23 14 74 118 170 211 271 332
31 215 341 452 426 246 75 2 1 44 65 65 153 138 108 122 269 283 203 140 50 45 43 29 41 61 114 140 169 219 241 271
111 137 315 424 492 397 259 39 0 104 73 149 326 415 307 253 219 317 394 226 54 14 41 23 42 70 134 129 153 135 186 235
53 325 326 401 497 545 409 283 74 19 29 141 421 451 310 345 357 311 248 222 101 65 46 47 35 80 144 176 179 179 196 233
9 103 443 446 466 602 609 543 468 151 33 133 268 439 308 286 405 341 308 132 126 122 46 55 68 72 89 114 115 128 157 127
2 3 67 468 619 571 629 699 718 435 241 146 232 529 325 150 192 243 300 295 228 193 155 124 132 116 70 150 128 150 152 155
0 1 6 34 549 760 650 637 724 721 688 662 280 339 279 244 291 262 191 204 197 184 110 105 138 23 0 0 5 197 76 112
0 2 15 14 24 501 818 811 676 762 729 566 555 534 398 370 234 194 232 225 181 128 118 103 126 146 0 0 0 4 9 23
0 0 0 8 11 40 333 692 835 745 615 562 605 753 693 530 390 276 272 316 287 287 244 234 254 198 24 6 24 17 4 0
CIN
-57 -82 -107 -109 -149 -281 -67 -45 -2 -1 -1 0 0 0 0 0 -1 -1 -1 -2 0 0 -41 -88 -107 -83 -31 -17 -21 -4 -6 -14
-49 -94 -120 -136 -223 0 0 0 0 0 -6 0 0 0 0 0 0 0 0 0 -29 -3 -3 -15 -20 -46 -57 -24 -27 -25 -32 -30
-45 -111 -134 -172 -125 0 0 0 0 0 0 0 0 0 0 0 0 0 0 0 -7 0 0 -18 -25 -36 -13 -29 -23 -30 -41 -46
-29 -118 -139 -184 -237 0 0 0 0 0 0 0 0 0 0 0 0 0 0 0 -7 -5 -19 -50 -86 -7 -3 0 0 -1 0 -45
-18 -122 -178 -186 -232 0 0 0 0 0 0 0 0 0 0 0 0 0 0 0 -29 -32 -43 -49 -16 -6 -1 -9 -22 -18 -3 -18
-17 -86 -166 -200 -238 -96 0 0 0 0 0 0 0 0 0 -1 0 0 0 0 -19 -44 -60 -35 -62 -52 -10 -26 -45 -28 -5 -4
-16 -66 -146 -182 -218 -95 0 0 0 0 0 0 0 -1 0 -2 -11 -1 0 0 0 -58 -43 -95 -67 -41 -21 -30 -31 -11 -18 -5
-25 -46 -123 -174 -229 -97 0 0 0 0 0 0 0 0 0 0 0 0 0 -1 0 0 0 -38 -31 -36 -7 -23 -7 -4 -12 -12
-2 -31 -97 -151 -222 -342 -513 0 0 0 0 0 0 0 0 0 0 0 -1 0 0 0 0 0 -7 -56 -45 -4 -6 -2 0 -1
0 -36 -88 -144 -196 -272 -426 -417 -338 -390 0 0 0 -113 -27 0 0 0 0 0 0 0 0 0 -8 -25 -38 -11 -6 -3 0 -16
-39 -40 -84 -124 -166 -231 -334 0 -323 -297 -353 -152 -188 -122 -223 -85 -130 -134 -42 0 0 0 -2 -18 -45 -21 -11 -8 -1 -1 0 -2
-24 -37 -61 -111 -139 -200 -290 -211 -61 -270 -253 -282 -211 -212 -204 -159 -56 -33 -37 -18 0 0 0 -3 -12 -5 0 0 0 0 0 0
-36 -51 -65 -106 -130 -167 -240 -329 0 -237 -224 -190 -149 -117 -134 -149 -128 -67 -26 -33 -69 0 -35 -1 -17 -10 0 -1 0 0 0 0
-25 -36 -63 -85 -108 -132 -184 -269 -325 -312 -287 -218 -151 -139 -152 -157 -124 -96 -83 -59 -66 -52 -11 -52 -40 -18 0 0 0 0 0 0
-8 -16 -31 -58 -79 -108 -143 -195 -245 -280 -295 -239 -209 -177 -196 -168 -120 -99 -88 -108 -73 -61 -32 -62 -43 -24 -14 -11 -4 0 0 -3
-5 -8 -16 -30 -60 -90 -120 -139 -188 -235 -243 -259 -248 -178 -196 -216 -166 -119 -83 -76 -87 -73 -45 -34 -20 -16 -24 -1 0 0 0 -2
0 -17 -22 -18 -30 -58 -97 -142 -162 -193 -203 -211 -221 -186 -188 -198 -165 -144 -135 -115 -99 -77 -87 -79 -45 -53 0 0 -62 0 -1 0
0 -33 -37 -22 -21 -37 -58 -99 -139 -172 -205 -218 -196 -181 -203 -199 -204 -91 -174 -143 -114 -128 -116 -96 -80 -67 0 0 0 -15 -4 -5
0 0 0 -61 -55 -46 -50 -59 -103 -159 -207 -223 -214 -182 -179 -183 -190 -207 -190 -144 -117 -110 -97 -79 -56 -66 -13 -13 -9 -5 -2 0
Wind_Speed
18 22 24 24 22 nan nan nan nan nan nan nan nan nan nan nan nan nan nan nan nan nan nan nan nan nan nan nan 37 nan nan nan
22 22 22 21 nan nan nan nan nan nan nan nan nan nan nan nan nan nan nan nan nan nan nan nan nan nan nan nan nan nan nan nan
24 22 22 22 nan nan nan nan nan nan nan nan nan nan nan nan nan nan nan nan nan 11 10 7 nan nan nan nan nan nan nan nan
23 21 23 24 nan nan nan nan nan nan nan nan nan nan nan nan nan nan nan nan nan 2 6 6 nan 10 13 13 16 17 19 nan
20 20 23 23 19 nan nan nan nan nan nan nan nan nan nan nan nan nan nan nan nan nan 13 12 15 14 16 14 17 20 20 22
15 20 23 21 22 nan nan nan nan nan nan nan nan nan nan nan nan nan nan nan nan nan nan nan nan 19 20 20 23 17 20 22
13 16 18 19 21 nan nan nan nan nan nan nan nan nan nan nan nan nan nan nan nan nan nan nan nan nan 19 21 21 18 17 13
nan 15 18 22 26 nan nan nan nan nan nan nan nan nan nan nan nan nan nan nan nan nan nan nan nan nan 13 14 10 11 8 8
nan 13 18 24 26 nan nan nan nan nan nan nan nan nan nan nan nan nan nan nan nan nan nan nan nan nan 4 2 9 9 9 11
nan 12 18 21 24 nan nan nan nan nan nan nan nan nan nan nan nan nan nan nan nan nan nan nan nan nan nan 2 8 6 9 10
nan nan 17 18 19 19 nan nan nan nan nan nan nan nan nan nan nan nan nan nan nan nan nan nan nan nan nan 6 8 11 11 13
nan 14 16 17 19 21 nan nan nan nan nan nan 19 19 18 18 19 20 17 18 nan nan nan nan nan nan 14 13 11 13 13 14
22 19 17 19 19 22 22 nan nan 14 nan 19 21 21 20 22 22 24 22 20 nan nan nan nan nan nan 19 17 15 17 17 18
nan 24 22 21 19 21 20 20 nan nan nan 25 24 20 19 22 23 23 23 21 20 nan nan nan nan nan 21 22 23 22 22 23
nan 24 24 22 22 19 18 21 22 23 nan 26 25 24 23 20 23 25 24 23 22 21 nan nan nan nan nan 18 18 21 20 29
nan nan nan 23 21 19 17 18 23 24 24 24 27 26 27 23 22 23 23 26 27 29 28 26 23 22 nan 19 18 15 23 27
nan nan nan nan 25 24 26 24 26 30 26 26 27 28 25 24 26 28 26 27 30 37 35 31 27 nan nan nan nan 21 nan 24
nan nan nan nan nan 29 28 27 29 31 28 25 24 25 26 25 30 33 33 36 39 38 33 33 31 28 nan nan nan nan nan nan
nan nan nan nan nan nan 30 29 32 31 31 31 31 30 29 32 35 33 35 38 37 34 32 31 31 30 nan nan nan nan nan nan
Wind_Direction
346 341 337 336 323 nan nan nan nan nan nan nan nan nan nan nan nan nan nan nan nan nan nan nan nan nan nan nan 255 nan nan nan
335 341 335 332 nan nan nan nan nan nan nan nan nan nan nan nan nan nan nan nan nan nan nan nan nan nan nan nan nan nan nan nan
327 341 339 332 nan nan nan nan nan nan nan nan nan nan nan nan nan nan nan nan nan 250 245 237 nan nan nan nan nan nan nan nan
328 346 342 329 nan nan nan nan nan nan nan nan nan nan nan nan nan nan nan nan nan 177 239 267 nan 255 264 268 258 255 248 nan
329 344 344 336 330 nan nan nan nan nan nan nan nan nan nan nan nan nan nan nan nan nan 284 282 294 278 295 281 271 252 253 261
331 342 343 340 327 nan nan nan nan nan nan nan nan nan nan nan nan nan nan nan nan nan nan nan nan 266 278 277 276 286 274 268
326 330 335 339 339 nan nan nan nan nan nan nan nan nan nan nan nan nan nan nan nan nan nan nan nan nan 272 276 284 300 287 282
nan 321 322 326 332 nan nan nan nan nan nan nan nan nan nan nan nan nan nan nan nan nan nan nan nan nan 268 268 271 254 269 261
nan 311 319 319 325 nan nan nan nan nan nan nan nan nan nan nan nan nan nan nan nan nan nan nan nan nan 293 262 238 239 232 223
nan 315 314 319 326 nan nan nan nan nan nan nan nan nan nan nan nan nan nan nan nan nan nan nan nan nan nan 305 270 280 264 255
nan nan 313 321 324 325 nan nan nan nan nan nan nan nan nan nan nan nan nan nan nan nan nan nan nan nan nan 303 270 270 274 269
nan 278 300 313 315 318 nan nan nan nan nan nan 346 344 342 340 338 336 337 340 nan nan nan nan nan nan 306 300 295 287 283 276
255 260 279 301 312 309 318 nan nan 327 nan 331 338 338 343 340 338 334 323 327 nan nan nan nan nan nan 303 299 289 284 290 290
nan 267 277 283 290 301 306 310 nan nan nan 321 323 326 335 333 331 328 331 332 328 nan nan nan nan nan 320 299 290 288 294 291
nan 262 271 281 289 297 297 302 303 305 nan 315 323 320 324 322 324 327 325 318 319 321 nan nan nan nan nan 316 303 270 276 297
nan nan nan 275 284 290 294 298 303 299 302 307 315 307 308 316 320 322 316 316 315 315 312 318 319 316 nan 319 311 299 289 310
nan nan nan nan 268 277 284 289 293 292 293 301 297 298 298 306 310 311 311 314 316 316 311 308 306 nan nan nan nan 289 nan 301
nan nan nan nan nan 265 269 282 283 291 294 293 295 292 295 300 304 308 305 309 306 311 303 299 299 297 nan nan nan nan nan nan
nan nan nan nan nan nan 259 270 282 288 295 299 300 301 299 300 306 306 307 304 307 301 300 296 293 284 nan nan nan nan nan nan